Wind_Speed
17 15 14 13 12 11 10 9 8 6 5 5 4 4 4 4 3 3 1 0 2 3 4 4 5 6 6 7 8 8 9 9 10 11 11 12 13 14 15 16 17 18 19
18 17 15 14 13 12 11 10 8 7 6 5 5 4 5 4 4 3 2 1 2 3 4 4 5 6 6 7 8 8 9 9 10 11 11 12 13 14 15 16 18 19 19
20 18 16 15 13 12 11 10 9 8 7 6 6 5 5 5 4 3 2 1 2 3 4 5 5 6 6 7 8 8 9 9 10 11 12 13 13 15 16 17 18 19 20
21 19 17 16 14 13 12 11 10 9 8 7 7 7 6 5 4 3 2 2 2 3 4 5 5 6 6 7 7 8 9 9 10 11 12 13 14 15 16 17 18 20 21
23 21 18 16 15 14 13 12 11 10 9 9 8 8 7 6 5 4 3 2 3 3 4 5 5 6 6 7 7 8 8 9 10 11 12 13 14 15 17 18 19 20 21
25 22 19 18 16 15 14 13 12 11 11 10 10 9 8 6 5 4 3 3 3 4 4 4 5 5 6 6 7 8 9 10 10 11 13 14 15 16 18 19 20 21 22
26 23 21 19 18 16 15 14 13 13 12 12 11 10 9 7 6 5 4 4 4 4 4 5 5 6 6 7 8 8 9 10 11 12 14 15 16 18 19 20 22 23 24
27 25 22 20 19 18 17 16 15 14 13 13 12 11 10 8 7 6 5 5 5 5 5 5 6 6 7 8 9 10 10 12 13 14 15 16 18 19 20 22 23 24 25
28 27 24 22 21 20 18 17 16 16 15 14 13 12 10 9 8 7 7 6 6 6 6 6 7 7 8 9 10 11 12 13 15 16 17 18 20 21 22 24 25 26 26
29 28 26 24 22 21 20 19 18 17 16 15 14 13 11 10 9 9 8 8 8 8 8 8 9 9 10 11 12 13 14 15 16 18 19 20 22 23 24 25 26 27 28
30 29 27 25 24 23 22 21 20 19 18 17 15 14 13 11 11 10 10 9 9 10 10 10 11 11 12 13 14 15 16 17 18 19 21 22 23 24 26 27 28 29 30
32 31 29 27 25 24 23 23 22 21 20 19 17 16 14 13 12 12 11 11 11 11 12 12 13 13 14 15 16 17 18 19 20 21 23 23 25 26 27 29 30 31 32
34 32 30 28 26 25 24 24 23 23 22 21 19 17 16 15 14 14 13 13 13 13 13 14 14 15 16 17 18 19 19 20 22 23 24 25 26 27 29 30 31 33 34
36 33 32 30 28 26 26 26 25 25 24 23 21 20 18 17 16 16 15 15 15 15 15 16 16 17 18 19 20 20 21 23 24 25 26 27 29 30 31 32 33 34 35
38 36 34 32 30 28 27 27 27 27 26 25 24 22 21 20 19 18 17 17 17 17 17 18 18 19 20 21 22 22 23 25 26 27 28 29 31 32 33 34 35 36 36
40 38 36 34 33 31 29 28 28 28 28 27 26 25 23 22 21 20 20 20 19 19 20 20 21 21 22 23 24 25 25 27 28 29 30 31 32 34 35 36 37 37 38
42 41 39 37 36 34 33 31 30 30 30 29 29 28 26 25 24 23 23 22 22 22 22 23 23 24 24 25 26 27 28 29 30 31 32 33 34 35 37 38 38 39 39
43 42 41 40 38 37 35 34 33 32 32 32 31 31 30 29 27 26 26 26 25 25 25 26 26 26 27 28 29 29 30 31 32 33 35 36 37 37 38 39 40 41 41
46 44 43 41 40 39 38 37 35 34 34 34 34 34 33 32 31 30 30 29 29 28 28 29 29 29 30 31 31 32 33 34 35 35 36 38 39 39 40 40 41 42 42
47 46 44 43 42 41 39 39 37 36 35 36 36 36 36 36 35 34 34 33 32 32 32 32 32 32 33 34 34 34 35 36 37 37 38 39 40 41 42 42 43 43 43
48 46 45 44 43 42 41 40 39 38 37 37 38 38 38 38 38 38 37 36 36 35 35 36 36 36 36 37 37 37 37 37 38 39 39 40 42 42 43 43 44 43 43
48 48 47 46 45 44 43 42 41 40 40 39 39 40 41 42 42 41 41 40 39 39 39 39 39 39 39 39 40 40 39 38 39 40 40 41 42 43 44 45 44 44 44
47 47 48 48 47 46 45 45 44 43 42 42 42 42 42 43 44 44 44 43 43 43 43 43 43 42 42 41 42 43 43 41 40 40 41 41 42 43 44 45 45 44 44
46 47 48 48 49 49 48 47 46 46 45 45 45 44 45 45 46 47 47 47 47 46 46 45 45 44 44 43 43 44 44 44 44 42 42 42 43 44 44 45 45 44 43
46 46 47 47 48 48 49 49 49 49 49 48 47 48 49 48 49 49 49 49 49 48 47 47 46 46 45 45 45 45 44 45 44 44 43 44 45 44 45 45 45 44 43
46 46 46 47 47 47 48 49 49 49 49 49 50 50 50 49 49 49 50 49 49 48 48 47 47 46 46 46 46 46 45 44 44 44 44 45 45 45 45 45 44 43 42
Wind_Direction
224 228 231 233 235 238 240 241 239 237 235 232 229 227 223 220 214 210 212 282 346 351 354 355 355 353 356 359 359 360 360 359 360 0 360 359 359 358 358 357 356 354 353
226 230 232 232 234 237 239 239 239 236 234 233 232 227 219 214 209 214 232 276 336 346 349 348 349 352 354 354 355 357 357 357 358 358 356 356 356 356 355 354 354 353 352
228 230 232 233 234 237 239 237 235 233 232 231 229 223 215 213 214 223 242 288 330 341 345 344 344 348 349 350 352 353 354 355 355 355 354 354 355 354 354 352 351 350 349
229 232 234 235 236 238 240 239 235 232 228 225 223 218 215 213 214 227 255 295 323 336 341 341 341 343 344 346 347 348 349 351 352 352 352 352 352 351 351 350 349 348 347
230 233 235 238 238 239 240 238 234 230 225 222 220 217 215 215 221 235 258 288 314 330 336 339 340 341 342 341 342 343 343 345 346 347 347 347 348 348 348 347 347 346 345
230 233 236 238 239 239 239 238 235 231 226 223 220 216 216 220 228 241 262 284 305 320 328 332 336 338 337 336 337 337 337 338 340 342 342 343 344 345 345 345 344 343 342
230 232 235 238 240 240 239 237 236 231 226 224 221 218 220 225 233 247 264 280 296 309 318 322 328 330 330 331 332 332 333 333 335 336 337 339 340 341 341 341 340 340 339
230 232 234 238 240 241 240 237 235 232 227 225 223 223 225 230 238 250 265 276 288 300 309 314 319 322 323 325 326 327 329 330 331 332 332 334 335 337 337 337 337 337 336
231 233 234 237 239 240 240 237 234 232 228 227 227 228 231 236 244 254 266 275 285 294 301 307 312 314 317 320 322 324 326 328 329 330 330 331 332 333 333 333 334 334 334
231 235 237 237 239 239 240 238 234 232 229 229 231 233 237 243 250 259 269 278 286 293 298 304 309 311 314 316 318 321 323 325 326 327 327 327 328 329 330 330 331 331 332
231 236 239 238 239 239 238 237 234 232 230 230 232 236 240 246 253 262 270 278 286 292 297 303 307 309 311 312 314 317 320 322 324 324 324 324 325 327 327 328 328 329 329
231 236 241 241 240 239 238 237 235 232 231 231 233 236 240 246 253 261 268 276 283 290 295 300 304 307 309 311 313 315 316 318 320 320 320 321 322 323 324 325 326 327 327
230 236 240 243 243 241 239 237 235 233 232 232 234 236 241 247 253 260 267 273 279 286 290 295 299 303 307 309 311 312 313 314 316 316 317 318 319 320 321 322 323 324 324
229 234 240 244 245 244 242 239 237 235 234 233 235 238 242 247 254 260 267 272 278 283 287 291 295 299 302 305 307 309 311 312 313 314 315 316 317 317 318 319 320 321 322
229 234 240 244 247 248 247 244 241 239 237 236 237 240 243 248 254 261 267 272 276 281 286 289 293 297 300 302 304 306 308 309 310 311 312 313 314 315 316 317 318 319 319
232 234 238 242 246 249 249 248 246 244 243 242 242 243 246 250 256 262 267 272 276 281 285 289 292 295 298 300 301 303 305 306 307 308 309 310 311 312 313 314 315 316 317
233 236 238 242 245 248 250 250 249 249 248 248 248 248 250 253 258 263 267 272 277 281 285 288 291 293 295 297 299 301 303 304 305 305 306 307 308 310 311 312 313 314 315
234 236 239 241 245 247 249 250 251 252 252 252 253 253 254 257 260 264 268 272 277 280 284 287 290 293 294 296 298 300 301 302 303 303 304 305 306 308 309 310 312 313 313
233 236 239 241 244 246 248 250 252 253 255 256 257 257 258 260 262 266 269 273 277 280 283 286 289 292 293 295 296 298 299 300 301 301 302 304 305 306 307 309 310 311 312
234 236 239 241 243 245 247 249 252 254 256 258 259 261 262 263 265 268 271 274 277 280 283 286 288 290 292 294 295 296 297 298 299 300 301 303 304 305 306 307 309 310 310
234 236 239 242 244 245 247 250 252 254 256 259 261 262 264 266 268 269 271 274 277 280 283 286 288 289 291 292 293 294 296 297 298 299 301 302 303 304 305 306 307 308 308
237 237 239 241 244 246 248 250 252 254 256 258 262 264 265 267 268 270 271 274 276 279 282 285 287 288 290 291 292 293 294 295 296 298 300 301 302 303 304 305 306 306 306
239 239 240 241 243 245 248 250 252 254 257 260 263 266 267 268 269 270 272 274 276 279 281 283 285 287 288 290 291 293 294 295 295 297 298 299 300 301 302 303 303 304 304
241 242 243 243 244 246 248 250 253 255 257 259 262 265 267 269 269 270 272 274 276 278 279 281 283 285 287 288 290 291 293 294 295 296 298 299 300 300 301 302 303 303 303
242 243 245 246 247 249 250 251 253 256 258 260 263 265 267 268 270 271 273 274 276 277 278 280 282 284 286 287 288 290 291 293 295 296 297 299 300 300 300 301 302 301 301
244 245 247 248 249 250 252 253 255 257 259 261 264 266 267 268 269 271 272 273 275 276 278 280 281 283 284 285 286 288 290 292 293 295 296 298 298 299 299 300 300 299 299
Height
5881 5882 5884 5886 5888 5889 5890 5891 5892 5893 5893 5894 5895 5895 5896 5896 5897 5897 5897 5897 5896 5896 5896 5895 5895 5895 5894 5893 5893 5892 5891 5891 5890 5889 5889 5888 5887 5886 5884 5883 5882 5880 5878
5879 5881 5883 5884 5886 5888 5889 5890 5891 5892 5893 5893 5894 5894 5895 5896 5896 5896 5897 5896 5896 5896 5895 5895 5895 5894 5894 5893 5892 5892 5891 5890 5890 5889 5888 5887 5886 5885 5883 5882 5881 5879 5877
5876 5879 5881 5883 5884 5886 5888 5889 5890 5891 5892 5892 5893 5894 5894 5895 5895 5896 5896 5896 5895 5895 5895 5894 5894 5893 5893 5892 5892 5891 5891 5890 5889 5888 5887 5886 5885 5884 5882 5881 5879 5878 5876
5874 5876 5879 5880 5882 5884 5886 5887 5888 5889 5890 5891 5892 5893 5893 5894 5895 5895 5895 5895 5895 5894 5894 5894 5893 5893 5892 5892 5891 5891 5890 5889 5888 5888 5887 5885 5884 5883 5881 5880 5878 5876 5874
5871 5874 5876 5878 5880 5882 5884 5885 5886 5887 5889 5890 5891 5892 5892 5893 5893 5894 5894 5894 5894 5894 5893 5893 5892 5892 5891 5891 5890 5890 5889 5888 5887 5887 5885 5884 5883 5881 5880 5878 5876 5875 5873
5868 5871 5873 5875 5877 5880 5881 5883 5884 5886 5887 5888 5889 5890 5891 5892 5892 5893 5893 5893 5893 5893 5892 5892 5891 5891 5890 5890 5889 5888 5888 5887 5886 5885 5884 5883 5881 5880 5878 5876 5875 5873 5871
5865 5868 5870 5873 5875 5877 5879 5881 5882 5883 5885 5886 5888 5889 5889 5890 5891 5891 5892 5892 5891 5891 5891 5891 5890 5889 5889 5888 5888 5887 5886 5886 5885 5883 5882 5881 5880 5878 5876 5875 5873 5871 5869
5861 5864 5867 5870 5872 5874 5876 5878 5880 5881 5882 5884 5885 5887 5888 5888 5889 5889 5890 5890 5890 5890 5890 5889 5888 5888 5888 5887 5886 5885 5885 5884 5883 5882 5880 5879 5878 5876 5874 5872 5870 5868 5866
5857 5861 5864 5867 5869 5871 5873 5875 5877 5879 5880 5882 5883 5884 5886 5886 5887 5887 5888 5888 5888 5888 5888 5887 5887 5886 5886 5885 5884 5884 5883 5882 5881 5879 5878 5877 5875 5873 5871 5870 5868 5865 5863
5853 5857 5860 5863 5866 5868 5870 5872 5874 5876 5878 5879 5881 5882 5883 5884 5885 5885 5886 5886 5886 5886 5886 5885 5885 5884 5884 5883 5882 5882 5880 5879 5878 5877 5875 5874 5872 5870 5868 5866 5864 5862 5859
5849 5853 5856 5860 5863 5865 5867 5869 5871 5873 5875 5877 5878 5880 5881 5882 5883 5883 5883 5884 5884 5883 5883 5883 5882 5882 5881 5881 5880 5879 5878 5877 5876 5874 5873 5871 5869 5867 5865 5863 5861 5858 5856
5845 5849 5852 5856 5859 5862 5864 5866 5868 5870 5872 5874 5875 5877 5878 5880 5880 5881 5881 5881 5881 5881 5881 5880 5880 5879 5879 5878 5877 5876 5875 5874 5873 5871 5869 5868 5866 5864 5862 5859 5857 5854 5852
5840 5844 5848 5852 5855 5858 5860 5863 5865 5867 5869 5871 5872 5874 5875 5877 5877 5878 5878 5879 5879 5878 5878 5878 5877 5877 5876 5875 5874 5873 5872 5871 5869 5868 5866 5864 5862 5860 5858 5855 5853 5850 5847
5835 5840 5844 5848 5851 5854 5857 5859 5861 5864 5866 5867 5869 5870 5872 5873 5874 5875 5875 5876 5876 5875 5875 5875 5874 5874 5873 5872 5871 5870 5869 5867 5866 5864 5862 5860 5858 5856 5854 5851 5848 5845 5842
5831 5835 5840 5843 5846 5850 5853 5855 5857 5860 5862 5864 5865 5867 5868 5869 5870 5871 5872 5872 5872 5872 5872 5871 5871 5870 5870 5869 5867 5866 5865 5863 5861 5860 5858 5856 5853 5851 5849 5846 5843 5840 5837
5826 5830 5834 5838 5842 5845 5848 5850 5853 5855 5857 5859 5861 5862 5864 5865 5866 5867 5868 5868 5868 5868 5868 5867 5867 5866 5865 5864 5863 5862 5861 5859 5857 5855 5853 5851 5848 5846 5843 5840 5837 5834 5831
5820 5824 5829 5833 5836 5839 5842 5845 5848 5850 5852 5854 5856 5858 5859 5860 5861 5862 5863 5863 5863 5863 5863 5862 5862 5861 5861 5859 5858 5857 5856 5854 5852 5849 5847 5845 5843 5840 5837 5834 5831 5828 5825
5814 5819 5823 5827 5831 5834 5837 5839 5842 5844 5847 5849 5851 5853 5854 5855 5856 5857 5858 5858 5858 5858 5858 5857 5857 5856 5855 5854 5853 5851 5850 5848 5846 5844 5841 5838 5836 5834 5831 5828 5824 5821 5818
5808 5812 5817 5821 5825 5828 5831 5833 5836 5838 5841 5843 5845 5847 5848 5850 5851 5851 5852 5852 5852 5852 5852 5851 5851 5850 5849 5848 5847 5845 5843 5842 5840 5837 5834 5831 5829 5826 5823 5821 5817 5814 5810
5801 5806 5810 5814 5818 5821 5824 5827 5830 5832 5834 5837 5839 5840 5842 5843 5844 5845 5845 5845 5846 5846 5845 5845 5844 5843 5842 5841 5840 5838 5837 5835 5832 5830 5827 5824 5821 5818 5815 5812 5809 5806 5802
5794 5799 5803 5807 5811 5814 5817 5820 5823 5825 5828 5830 5832 5833 5835 5836 5837 5838 5838 5838 5838 5838 5838 5837 5836 5836 5835 5833 5832 5831 5830 5827 5825 5822 5819 5816 5813 5810 5807 5804 5801 5797 5794
5786 5791 5795 5799 5803 5807 5810 5813 5816 5818 5820 5822 5824 5825 5827 5828 5829 5830 5830 5830 5830 5830 5830 5829 5828 5827 5826 5825 5823 5822 5822 5821 5817 5814 5812 5808 5805 5801 5798 5795 5792 5788 5785
5779 5783 5788 5791 5795 5799 5802 5805 5808 5810 5812 5815 5816 5817 5818 5819 5820 5821 5821 5822 5822 5822 5821 5820 5819 5819 5818 5816 5814 5812 5811 5811 5809 5807 5804 5800 5797 5793 5790 5786 5783 5779 5776
5772 5776 5780 5783 5787 5790 5793 5797 5799 5802 5804 5806 5807 5808 5809 5810 5811 5812 5812 5812 5813 5813 5812 5811 5810 5809 5808 5807 5805 5803 5801 5799 5798 5798 5795 5791 5788 5784 5780 5777 5773 5770 5767
5763 5767 5771 5775 5778 5782 5785 5788 5790 5793 5795 5797 5798 5799 5800 5801 5801 5802 5803 5803 5803 5803 5802 5801 5801 5800 5798 5797 5796 5794 5792 5790 5788 5787 5785 5782 5778 5774 5771 5767 5764 5761 5757
5755 5759 5762 5766 5769 5773 5775 5778 5780 5783 5785 5787 5788 5789 5790 5791 5792 5792 5792 5792 5792 5792 5792 5791 5791 5790 5789 5787 5786 5784 5782 5781 5779 5776 5775 5772 5769 5765 5761 5758 5755 5751 5748